Regional Weather Roundup
Issued by NWS

Home | Current Version | Previous Version | Text Only | Print | Product List | Glossary Off
Versions: 1 2 3 4 5 6 7 8 9 10 11 12 13 14 15 16 17 18 19 20 21 22 23 24 25 26 27 28 29 30 31 32 33 34 35 36 37 38 39 40 41 42 43 44 45 46 47 48 49 50

261
ASUS43 KDMX 010510
RWRIA

WEATHER ROUNDUP FOR IOWA
NATIONAL WEATHER SERVICE DES MOINES IA
1200 AM CDT THU SEP 01 2016

NOTE: "FAIR" INDICATES FEW OR NO CLOUDS BELOW 12,000 FEET WITH NO
SIGNIFICANT WEATHER AND/OR OBSTRUCTIONS TO VISIBILITY.

* - THESE STATIONS ARE NOT NWS STATIONS...THUS NOT UNDER NWS
QUALITY CONTROL.  THEY ALSO DO NOT REPORT WEATHER SUCH
AS PRECIPITATION OR FOG.

IAZ001>003-012>014-020>022-031>034-043>046-010600-
   NORTHWEST IOWA

CITY           SKY/WX    TMP DP  RH WIND       PRES   REMARKS
CARROLL *      CLEAR     57  57 100 NW3       30.20S
CHEROKEE *     CLEAR     60  60 100 CALM      30.22S
DENISON *      CLEAR     57  57 100 CALM      30.19R
LE MARS *      CLEAR     61  59  94 CALM      30.22S
ORANGE CITY *  CLEAR     64  59  82 CALM      30.22S
SHELDON *      CLEAR     57  57 100 CALM      30.21S
SIOUX CITY     CLEAR     63  60  90 CALM      30.20S
SPENCER        CLEAR     59  56  89 CALM      30.22S
STORM LAKE *   CLEAR     63  59  88 NE6       30.22S
$$

IAZ055>058-069>071-079>083-090>094-010600-
   SOUTHWEST IOWA

CITY           SKY/WX    TMP DP  RH WIND       PRES   REMARKS
ATLANTIC *     CLEAR     61  59  94 N3        30.19R
AUDUBON *      CLEAR     59  55  88 CALM      30.21S
CLARINDA *       N/A     63  63 100 MISG        N/A
COUNCIL BLFS * CLEAR     64  61  88 NE7       30.19S
CRESTON *      CLEAR     64  59  82 NE6       30.19S
HARLAN  *      CLEAR     61  59  94 N3        30.23R
LAMONI         CLEAR     61  60  97 N6        30.16S
RED OAK *      CLEAR     61  59  94 CALM      30.18S
SHENANDOAH *   CLEAR     63  61  94 NE5       30.18R
$$

IAZ047>049-059>061-072>074-084-010600-
   CENTRAL IOWA

CITY           SKY/WX    TMP DP  RH WIND       PRES   REMARKS
AMES           CLEAR     61  60  97 N5        30.19R
ANKENY *         N/A    N/A N/A N/A MISG        N/A
BOONE *          N/A     63  57  82 N7        30.19R
CHARITON *       N/A     61  57  88 N7        30.16S
DES MOINES     CLEAR     69  58  67 NE5       30.16S
GRINNELL*      CLEAR     61  55  83 NW3       30.18S
KNOXVILLE *    CLEAR     61  57  88 MISG      30.16R
MARSHALLTOWN   CLEAR     59  57  93 NE8       30.17S
NEWTON *       CLEAR     63  59  88 N8        30.16F
PELLA *        CLEAR     61  58  90 CALM      30.18R
PERRY *          N/A     62  61  96 N5        30.19R
$$

IAZ004>006-015-016-023>025-035-036-010600-
   NORTH CENTRAL IOWA

CITY           SKY/WX    TMP DP  RH WIND       PRES   REMARKS
ALGONA *       CLEAR     61  59  94 CALM      30.22R
ESTHERVILLE    CLEAR     56  56 100 NW3       30.22S
FORT DODGE *   CLEAR     61  55  82 NE5       30.21S
MASON CITY     CLEAR     56  54  93 N3        30.22S
FOREST CITY *    N/A     55  55 100 CALM      30.21S
WEBSTER CITY * CLEAR     57  57 100 NE5       30.18S
IOWA FALLS *     N/A     61  55  79 CALM      30.20S
$$

IAZ007>011-017>019-026>030-037>042-050>054-066-010600-
   NORTHEAST IOWA

CITY           SKY/WX    TMP DP  RH WIND       PRES   REMARKS
CEDAR RAPIDS   CLEAR     60  58  92 N6        30.16R
CHARLES CITY * CLEAR     59  57  94 N5        30.20F
CLINTON *      CLEAR     60  58  92 N5        30.14S
DECORAH *      CLEAR     57  57 100 CALM      30.19S
DUBUQUE        CLEAR     64  58  80 N5        30.16S
MONTICELLO *   CLEAR     61  59  94 NW3       30.16R
OELWEIN *      CLEAR     59  55  88 N5        30.19S
WATERLOO       CLEAR     58  54  86 CALM      30.17S
$$

IAZ064-065-067-068-078-010600-
   EAST CENTRAL IOWA

CITY           SKY/WX    TMP DP  RH WIND       PRES   REMARKS
DAVENPORT      CLEAR     61  57  87 NE6       30.14S
IOWA CITY      CLEAR     65  57  75 N6        30.16R
MT. PLEASANT * CLEAR     63  60  90 N6        30.14S
MUSCATINE *    CLEAR     63  57  82 CALM      30.14S
QUAD CITIES    CLEAR     62  58  86 CALM      30.13R
$$

IAZ062-063-075>077-085>089-095>099-010600-
   SOUTHEAST IOWA

CITY           SKY/WX    TMP DP  RH WIND       PRES   REMARKS
BURLINGTON     CLEAR     63  60  90 N8        30.13R
FAIRFIELD *    CLEAR     61  57  88 N7        30.14S
FORT MADISON * CLEAR     61  61 100 CALM      30.14S
KEOKUK *       CLEAR     66  61  82 N5        30.12S
OSKALOOSA *      N/A     58  56  93 N5        30.15S
OTTUMWA        CLEAR     62  56  80 N6        30.15R
WASHINGTON *   CLEAR     63  59  88 N7        30.15F
$$

ABBREVIATIONS USED IN REMARKS
   TC - TEMPERATURES IN CELSIUS
  WCI - WIND CHILL INDEX
   HX - HEAT INDEX
  VSB - VISIBILITY
$$





USA.gov is the U.S. government's official web portal to all federal, state and local government web resources and services.